When you browse on this site, cookies collect data to enhance your experience and personalize the content and advertising you see.
Visit our Privacy Policy to learn more. By continuing to use the site, you agree to this use of cookies and data.
  • en France
  • Liste des pays
  • À 7 jours
  • Température de l'eau
  • Carte satellitaire
  • Carte météo
  • Widgets météo
  • user-avatar
    Se connecter

    Météo par heure à Ordino

    Ce jour, 19 Janvier, Samedi

    Heure Température Précipitation Vent Pression Humidité
    00:00 -4°C° 0 mm 0 m/s 627 mmHg 72%
    01:00 -5°C° 0 mm 0 m/s 627 mmHg 72%
    02:00 -4°C° 0 mm 1 m/s 626 mmHg 71%
    03:00 -4°C° 0 mm 1 m/s 626 mmHg 71%
    04:00 -4°C° 0 mm 1 m/s 626 mmHg 71%
    05:00 -4°C° 0 mm 1 m/s 626 mmHg 71%
    06:00 -4°C° 0 mm 1 m/s 626 mmHg 71%
    07:00 -3°C° 0 mm 1 m/s 627 mmHg 68%
    08:00 -3°C° 0 mm 0 m/s 627 mmHg 65%
    09:00 -1°C° 0 mm 0 m/s 628 mmHg 62%
    10:00 0°C° 0 mm 0 m/s 628 mmHg 59%
    11:00 +3°C° 0 mm 1 m/s 629 mmHg 56%
    12:00 +4°C° 0 mm 1 m/s 629 mmHg 53%
    13:00 +4°C° 0 mm 1 m/s 628 mmHg 54%
    14:00 +3°C° 0 mm 1 m/s 628 mmHg 56%
    15:00 +3°C° 0 mm 1 m/s 627 mmHg 57%
    16:00 +1°C° 0 mm 1 m/s 626 mmHg 65%
    17:00 0°C° 0 mm 1 m/s 626 mmHg 72%
    18:00 -2°C° 0 mm 1 m/s 625 mmHg 80%
    19:00 -2°C° 0 mm 1 m/s 625 mmHg 79%
    20:00 -2°C° 0 mm 1 m/s 625 mmHg 78%
    21:00 -2°C° 0 mm 1 m/s 625 mmHg 78%
    22:00 -2°C° 0 mm 1 m/s 625 mmHg 78%
    23:00 -2°C° 0 mm 1 m/s 625 mmHg 78%

    Demain, 20 Janvier, Dimanche

    Heure Température Précipitation Vent Pression Humidité
    00:00 -1°C° 0 mm 1 m/s 625 mmHg 78%
    01:00 -1°C° 0 mm 1 m/s 625 mmHg 77%
    02:00 -1°C° 0 mm 1 m/s 625 mmHg 77%
    03:00 -1°C° 0 mm 1 m/s 624 mmHg 76%
    04:00 -1°C° 0 mm 1 m/s 625 mmHg 75%
    05:00 -1°C° 0 mm 1 m/s 625 mmHg 73%
    06:00 -1°C° 0 mm 1 m/s 625 mmHg 72%
    07:00 -1°C° 0 mm 1 m/s 625 mmHg 69%
    08:00 0°C° 0 mm 1 m/s 626 mmHg 65%
    09:00 +1°C° 0 mm 1 m/s 626 mmHg 61%
    10:00 +2°C° 0 mm 1 m/s 627 mmHg 58%
    11:00 +3°C° 0 mm 1 m/s 627 mmHg 56%
    12:00 +4°C° 0 mm 1 m/s 628 mmHg 53%
    13:00 +2°C° 0 mm 2 m/s 627 mmHg 58%
    14:00 +2°C° 0 mm 2 m/s 627 mmHg 62%
    15:00 +1°C° 0 mm 2 m/s 627 mmHg 66%
    16:00 +1°C° 0.1 mm 1 m/s 627 mmHg 74%
    17:00 0°C° 0.1 mm 1 m/s 627 mmHg 81%
    18:00 -1°C° 0.1 mm 1 m/s 627 mmHg 88%
    19:00 -1°C° 0 mm 1 m/s 627 mmHg 87%
    20:00 -2°C° 0 mm 1 m/s 627 mmHg 86%
    21:00 -2°C° 0 mm 1 m/s 627 mmHg 84%
    22:00 -1°C° 0.3 mm 1 m/s 628 mmHg 85%
    23:00 -1°C° 0.3 mm 1 m/s 628 mmHg 86%

    Après-demain, 21 Janvier, Lundi

    Heure Température Précipitation Vent Pression Humidité
    00:00 -1°C° 0.3 mm 1 m/s 628 mmHg 87%
    01:00 -3°C° 0.1 mm 2 m/s 628 mmHg 88%
    02:00 -3°C° 0.1 mm 2 m/s 628 mmHg 88%
    03:00 -4°C° 0.1 mm 2 m/s 628 mmHg 89%
    04:00 -4°C° 0.2 mm 2 m/s 628 mmHg 89%
    05:00 -4°C° 0.2 mm 2 m/s 628 mmHg 88%
    06:00 -4°C° 0.2 mm 2 m/s 629 mmHg 88%
    07:00 -4°C° 0.2 mm 2 m/s 629 mmHg 85%
    08:00 -3°C° 0.2 mm 2 m/s 629 mmHg 82%
    09:00 -3°C° 0.2 mm 2 m/s 630 mmHg 80%
    10:00 -2°C° 0.1 mm 2 m/s 630 mmHg 75%
    11:00 -1°C° 0.1 mm 3 m/s 630 mmHg 71%
    12:00 -1°C° 0.1 mm 3 m/s 631 mmHg 67%
    13:00 -1°C° 0.1 mm 3 m/s 631 mmHg 69%
    14:00 -1°C° 0.1 mm 3 m/s 630 mmHg 70%
    15:00 -2°C° 0.1 mm 3 m/s 630 mmHg 71%
    16:00 -4°C° 0 mm 3 m/s 630 mmHg 77%
    17:00 -4°C° 0 mm 2 m/s 630 mmHg 82%
    18:00 -5°C° 0 mm 2 m/s 630 mmHg 88%
    19:00 -6°C° 0 mm 2 m/s 630 mmHg 88%
    20:00 -6°C° 0 mm 2 m/s 630 mmHg 89%
    21:00 -7°C° 0 mm 2 m/s 630 mmHg 89%
    22:00 -7°C° 0 mm 2 m/s 629 mmHg 86%
    23:00 -8°C° 0 mm 2 m/s 629 mmHg 83%

    22 Janvier, Mardi

    Heure Température Précipitation Vent Pression Humidité
    00:00 -8°C° 0 mm 2 m/s 629 mmHg 80%
    01:00 -8°C° 0 mm 2 m/s 628 mmHg 74%
    02:00 -8°C° 0 mm 2 m/s 628 mmHg 67%
    03:00 -8°C° 0 mm 2 m/s 628 mmHg 61%
    04:00 -8°C° 0 mm 2 m/s 627 mmHg 58%
    05:00 -8°C° 0 mm 2 m/s 627 mmHg 55%
    06:00 -8°C° 0 mm 2 m/s 627 mmHg 53%
    07:00 -6°C° 0 mm 1 m/s 627 mmHg 50%
    08:00 -3°C° 0 mm 1 m/s 627 mmHg 48%
    09:00 -1°C° 0 mm 1 m/s 627 mmHg 46%
    10:00 -1°C° 0.2 mm 1 m/s 626 mmHg 51%
    11:00 0°C° 0.2 mm 1 m/s 626 mmHg 57%
    12:00 -2°C° 0.2 mm 2 m/s 625 mmHg 63%
    13:00 -2°C° 0.7 mm 2 m/s 625 mmHg 69%
    14:00 -2°C° 0.7 mm 2 m/s 624 mmHg 75%
    15:00 -2°C° 0.7 mm 2 m/s 623 mmHg 81%
    16:00 -3°C° 0.4 mm 2 m/s 623 mmHg 83%
    17:00 -4°C° 0.4 mm 2 m/s 622 mmHg 85%
    18:00 -4°C° 0.4 mm 2 m/s 621 mmHg 88%
    19:00 -3°C° 0.4 mm 1 m/s 621 mmHg 90%
    20:00 -3°C° 0.4 mm 1 m/s 620 mmHg 92%
    21:00 -3°C° 0.4 mm 1 m/s 620 mmHg 94%
    22:00 -5°C° 1.1 mm 2 m/s 619 mmHg 94%
    23:00 -5°C° 1.1 mm 2 m/s 619 mmHg 94%

    23 Janvier, Mercredi

    Heure Température Précipitation Vent Pression Humidité
    00:00 -7°C° 1.1 mm 3 m/s 618 mmHg 94%
    01:00 -7°C° 1.1 mm 3 m/s 618 mmHg 94%
    02:00 -8°C° 1.1 mm 3 m/s 617 mmHg 93%
    03:00 -9°C° 1.1 mm 3 m/s 616 mmHg 93%
    04:00 -11°C° 0.7 mm 4 m/s 616 mmHg 92%
    05:00 -11°C° 0.7 mm 4 m/s 616 mmHg 91%
    06:00 -13°C° 0.7 mm 5 m/s 615 mmHg 90%
    07:00 -13°C° 0.4 mm 5 m/s 615 mmHg 89%
    08:00 -14°C° 0.4 mm 6 m/s 616 mmHg 87%
    09:00 -14°C° 0.4 mm 6 m/s 616 mmHg 85%
    10:00 -14°C° 0.1 mm 7 m/s 616 mmHg 83%
    11:00 -13°C° 0.1 mm 7 m/s 616 mmHg 81%
    12:00 -13°C° 0.1 mm 7 m/s 616 mmHg 79%
    13:00 -13°C° 0.1 mm 7 m/s 616 mmHg 80%
    14:00 -13°C° 0.1 mm 8 m/s 616 mmHg 81%
    15:00 -13°C° 0.1 mm 8 m/s 615 mmHg 82%
    16:00 -13°C° 0.1 mm 8 m/s 615 mmHg 83%
    17:00 -14°C° 0.1 mm 7 m/s 616 mmHg 84%
    18:00 -14°C° 0.1 mm 7 m/s 616 mmHg 85%
    19:00 -14°C° 0.1 mm 7 m/s 616 mmHg 86%
    20:00 -15°C° 0.1 mm 7 m/s 616 mmHg 86%
    21:00 -15°C° 0.1 mm 6 m/s 617 mmHg 86%
    22:00 -15°C° 0 mm 6 m/s 617 mmHg 86%
    23:00 -15°C° 0 mm 6 m/s 616 mmHg 86%

    24 Janvier, Jeudi

    Heure Température Précipitation Vent Pression Humidité
    00:00 -15°C° 0 mm 5 m/s 616 mmHg 86%
    01:00 -15°C° 0 mm 5 m/s 616 mmHg 86%
    02:00 -17°C° 0 mm 5 m/s 616 mmHg 86%
    03:00 -16°C° 0 mm 4 m/s 615 mmHg 86%
    04:00 -16°C° 0 mm 4 m/s 615 mmHg 86%
    05:00 -15°C° 0 mm 5 m/s 616 mmHg 86%
    06:00 -15°C° 0 mm 5 m/s 616 mmHg 86%
    07:00 -14°C° 0 mm 5 m/s 616 mmHg 84%
    08:00 -14°C° 0 mm 5 m/s 617 mmHg 82%
    09:00 -13°C° 0 mm 5 m/s 618 mmHg 80%
    10:00 -12°C° 0 mm 5 m/s 618 mmHg 78%
    11:00 -11°C° 0 mm 5 m/s 619 mmHg 77%
    12:00 -10°C° 0 mm 5 m/s 619 mmHg 75%
    13:00 -10°C° 0 mm 5 m/s 619 mmHg 77%
    14:00 -10°C° 0 mm 5 m/s 619 mmHg 78%
    15:00 -11°C° 0 mm 5 m/s 619 mmHg 80%
    16:00 -12°C° 0 mm 5 m/s 619 mmHg 82%
    17:00 -12°C° 0 mm 4 m/s 619 mmHg 85%
    18:00 -14°C° 0 mm 4 m/s 620 mmHg 87%
    19:00 -14°C° 0 mm 4 m/s 620 mmHg 87%
    20:00 -14°C° 0 mm 4 m/s 621 mmHg 87%
    21:00 -14°C° 0 mm 4 m/s 621 mmHg 86%
    22:00 -14°C° 0 mm 4 m/s 621 mmHg 84%
    23:00 -14°C° 0 mm 4 m/s 622 mmHg 82%
    Voir plus